071  
ASUS42 KRAH 111510  
RWRRAH  
NORTH CAROLINA WEATHER ROUNDUP  
NATIONAL WEATHER SERVICE RALEIGH NC  
1000 AM EST MON DEC 11 2017  
 
NOTE: "FAIR" INDICATES FEW OR NO CLOUDS BELOW 12,000 FEET WITH NO  
SIGNIFICANT WEATHER AND/OR S TO VISIBILITY
.  
 
NCZ001-053-055-056-065-067-111600-  
WESTERN NORTH CAROLINA  
 
CITY SKY/WX TMP DP RH WIND PRES REMARKS
 
ASHEVILLE SUNNY 38 25 59 CALM 30.12F  
JEFFERSON SUNNY 34 22 60 W13G23 30.05S WCI 25  
MORGANTON SUNNY 42 27 54 CALM 30.15S  
HICKORY SUNNY 43 26 51 W5 30.12R  
RUTHERFORDTON SUNNY 37 29 73 CALM 30.14S  
MOUNT AIRY SUNNY 35 25 66 NW6 30.12F WCI 30  
BOONE SUNNY 34 22 61 W5G16 30.07F WCI 30  

 
 
NCZ021-022-025-041-071-084-088-111600-  
CENTRAL NORTH CAROLINA  
 
CITY SKY/WX TMP DP RH WIND PRES REMARKS
 
CHARLOTTE SUNNY 40 29 64 VRB3 30.15S  
GREENSBORO MOSUNNY 37 27 67 CALM 30.12R  
WINSTON-SALEM SUNNY 37 26 64 VRB3 30.13S  
RALEIGH-DURHAM MOSUNNY 41 31 67 S5 30.15S  
FORT BRAGG N/A 39 29 67 SW3 30.16S  
FAYETTEVILLE SUNNY 39 30 70 S3 30.17S  
BURLINGTON SUNNY 39 31 72 SW3 30.13S  
LAURINBURG SUNNY 40 30 67 W3 30.19S  

 
 
NCZ011-015-027-028-043-044-047-080-103-111600-  
NORTHEASTERN NORTH CAROLINA  
 
CITY SKY/WX TMP DP RH WIND PRES REMARKS
 
ROCKY MT-WILSO SUNNY 41 30 65 W5 30.16S  
GREENVILLE SUNNY 39 30 70 SW6 30.17S WCI 35  
WASHINGTON SUNNY 40 30 68 SW7 30.17S  
ELIZABETH CITY SUNNY 42 32 67 W6 30.14S  
MANTEO SUNNY 42 30 61 W6 30.15S  
CAPE HATTERAS SUNNY 49 35 58 W9 30.16S  

 
 
NCZ078-087-090-091-093-098-101-111600-  
SOUTHEASTERN NORTH CAROLINA  
 
CITY SKY/WX TMP DP RH WIND PRES REMARKS
 
LUMBERTON SUNNY 40 30 67 W3 30.18S  
GOLDSBORO SUNNY 41 29 61 SW6 30.15F  
KINSTON SUNNY 41 30 65 SW5 30.17F  
KENANSVILLE SUNNY 39 30 70 SW5 30.18S  
NEW BERN SUNNY 43 32 65 CALM 30.18F  
CHERRY POINT SUNNY 44 32 62 W5 30.19S  
BEAUFORT SUNNY 45 33 63 N6 30.18S  
JACKSONVILLE SUNNY 42 32 67 W6 30.18S  
WILMINGTON SUNNY 43 30 60 W5 30.18F  

 
 
 
 
CLICK HERE TO GO TO PREVIOUS BULLETINS.

The Nexlab NC Page Main Text Page